WIF974 ENHK-ENHF

Flight info

Callsign WIF974
Flight time 0h 11m
Altitude 7000
Route HMF
Aircraft DH8B/M-SDFGR/S

Departure

Time 2026-04-26 19:45
Airport Hasvik Airport (ENHK)

Arrival

Time 2026-04-26 19:57
Airport Hammerfest Airport (ENHF)
Time Latitude Longitude Altitude Speed Heading
2026-04-26 19:40 70.48617 22.14661 123 ft 0 kts 122°
2026-04-26 19:43 70.48595 22.14688 130 ft 9 kts 200°
2026-04-26 19:44 70.48523 22.14759 123 ft 19 kts 112°
2026-04-26 19:44 70.48454 22.15141 120 ft 12 kts 111°
2026-04-26 19:44 70.48430 22.15300 120 ft 6 kts 240°
2026-04-26 19:44 70.48445 22.15181 120 ft 29 kts 300°
2026-04-26 19:45 70.48732 22.13607 141 ft 128 kts 298°
2026-04-26 19:45 70.49194 22.11063 601 ft 145 kts 302°
2026-04-26 19:45 70.49476 22.08032 1289 ft 164 kts 271°
2026-04-26 19:45 70.48953 22.04843 2005 ft 185 kts 227°
2026-04-26 19:46 70.47728 22.03482 2754 ft 198 kts 180°
2026-04-26 19:46 70.46458 22.04935 3523 ft 200 kts 134°
2026-04-26 19:46 70.45833 22.08449 4282 ft 191 kts 90°
2026-04-26 19:46 70.46022 22.12217 5076 ft 181 kts 60°
2026-04-26 19:47 70.46432 22.15824 5870 ft 187 kts 72°
2026-04-26 19:47 70.46513 22.17122 6139 ft 189 kts 74°
2026-04-26 19:47 70.46924 22.23784 7033 ft 213 kts 71°
2026-04-26 19:47 70.47318 22.28383 7051 ft 240 kts 70°
2026-04-26 19:48 70.47749 22.33316 7105 ft 246 kts 71°
2026-04-26 19:48 70.48164 22.38220 7289 ft 245 kts 71°
2026-04-26 19:48 70.48591 22.43251 7288 ft 253 kts 71°
2026-04-26 19:48 70.48880 22.46638 7292 ft 256 kts 71°
2026-04-26 19:49 70.49463 22.53545 7288 ft 261 kts 71°
2026-04-26 19:49 70.49904 22.58802 7169 ft 261 kts 71°
2026-04-26 19:49 70.50342 22.64052 7136 ft 259 kts 71°
2026-04-26 19:49 70.50780 22.69265 7111 ft 258 kts 72°
2026-04-26 19:50 70.51076 22.72783 7078 ft 257 kts 71°
2026-04-26 19:50 70.51506 22.77914 7022 ft 257 kts 72°
2026-04-26 19:50 70.51944 22.83175 6957 ft 258 kts 72°
2026-04-26 19:50 70.52363 22.88233 6748 ft 250 kts 72°
2026-04-26 19:51 70.52781 22.93256 6518 ft 245 kts 71°
2026-04-26 19:51 70.53173 22.98207 6272 ft 243 kts 73°
2026-04-26 19:51 70.53514 23.03148 6008 ft 241 kts 75°
2026-04-26 19:51 70.53826 23.08128 5550 ft 246 kts 75°
2026-04-26 19:52 70.54372 23.12947 5031 ft 244 kts 58°
2026-04-26 19:52 70.55249 23.17271 4529 ft 242 kts 51°
2026-04-26 19:52 70.56259 23.21279 4033 ft 239 kts 45°
2026-04-26 19:52 70.57367 23.24891 3545 ft 237 kts 42°
2026-04-26 19:53 70.58465 23.28290 3038 ft 212 kts 41°
2026-04-26 19:53 70.59450 23.31308 2482 ft 194 kts 41°
2026-04-26 19:53 70.60372 23.34103 1972 ft 182 kts 41°
2026-04-26 19:53 70.61236 23.36747 1961 ft 172 kts 45°
2026-04-26 19:54 70.61891 23.39703 1952 ft 168 kts 54°
2026-04-26 19:54 70.62454 23.42746 1962 ft 165 kts 55°
2026-04-26 19:54 70.62982 23.45516 1897 ft 142 kts 53°
2026-04-26 19:54 70.63470 23.48065 1563 ft 143 kts 52°
2026-04-26 19:55 70.63943 23.50531 1539 ft 131 kts 52°
2026-04-26 19:55 70.64401 23.52896 1334 ft 130 kts 51°
2026-04-26 19:55 70.64970 23.55234 1080 ft 149 kts 46°
2026-04-26 19:55 70.65710 23.57544 843 ft 158 kts 41°
2026-04-26 19:56 70.66463 23.59984 687 ft 156 kts 49°
2026-04-26 19:56 70.67006 23.62515 527 ft 133 kts 57°
2026-04-26 19:56 70.67471 23.64661 409 ft 114 kts 54°
2026-04-26 19:56 70.67891 23.66531 261 ft 86 kts 56°
2026-04-26 19:57 70.68061 23.67300 262 ft 31 kts 56°
2026-04-26 19:57 70.68118 23.67554 262 ft 10 kts 56°
2026-04-26 19:57 70.68145 23.67733 262 ft 10 kts 114°
2026-04-26 19:57 70.68086 23.67754 262 ft 12 kts 234°
2026-04-26 19:58 70.68073 23.67700 262 ft 0 kts 234°